Storm Lake, IA

6:29 PM CDT on March 27, 2017 (GMT -0500)
Storm Lake Municipal

Weather History for KSLB - June, 2013

Change the Weather History Date:

Thursday, June 13, 2013

  Actual Average Record
Temperature  
Mean Temperature 67 °F -  
Max Temperature 77 °F 77 °F 89 °F (2001)
Min Temperature 57 °F 57 °F 48 °F (2014)
Cooling Degree Days 2    
Growing Degree Days 17 (Base 50)    
Moisture  
Dew Point 54 °F    
Average Humidity 63    
Maximum Humidity 88    
Minimum Humidity 41    
Precipitation  
Precipitation 0.00 in - - ()
Sea Level Pressure  
Sea Level Pressure 30.05 in    
Wind  
Wind Speed 11 mph (NNE)    
Max Wind Speed 18 mph    
Max Gust Speed 26 mph    
Visibility 10 miles    
Events      
Averages and records for this station are not official NWS values.
T = Trace of Precipitation, MM = Missing Value Source: NWS Daily Summary

Daily Weather History Graph

Daily Weather History Graph

Search for Another Location

Airport or City:

Trip Planner

Search our weather history database for the weather conditions in past years. The results will help you decide how hot, cold, wet, or windy it might be!

Date:

Astronomy

Jun. 13, 2013 Rise Set
Actual Time 5:42 AM CDT 8:59 PM CDT
Civil Twilight 5:07 AM CDT 9:34 PM CDT
Nautical Twilight 4:22 AM CDT 10:19 PM CDT
Astronomical Twilight 3:27 AM CDT 11:15 PM CDT
Moon 10:25 AM CDT (6/13) No Moon Set
Length of Visible Light 16h 26m
Length of Day
15h 17m
Waxing Crescent, 22% of the Moon is Illuminated
Jun 13
Waxing Crescent
Jun 16
First Quarter
Jun 23
Full
Jun 29
Last Quarter
Jul 8
New

Hourly Weather History & Observations

Time (CDT) Temp. Dew Point Humidity Pressure Visibility Wind Dir Wind Speed Gust Speed Precip Events Conditions
12:35 AM 62.6 °F 55.4 °F 77% 29.99 in 10.0 mi North 17.3 mph 26.5 mph N/A   Clear
12:55 AM 60.8 °F 55.4 °F 82% 29.99 in 10.0 mi NNW 18.4 mph 25.3 mph N/A   Clear
1:15 AM 60.8 °F 55.4 °F 82% 30.00 in 10.0 mi NNW 17.3 mph - N/A   Clear
1:35 AM 60.8 °F 55.4 °F 82% 30.01 in 10.0 mi NNW 13.8 mph 20.7 mph N/A   Clear
1:55 AM 60.8 °F 55.4 °F 82% 30.01 in 10.0 mi NNW 13.8 mph - N/A   Clear
2:15 AM 60.8 °F 55.4 °F 82% 30.02 in 10.0 mi NNW 15.0 mph - N/A   Clear
2:35 AM 60.8 °F 55.4 °F 82% 30.02 in 10.0 mi NNW 13.8 mph - N/A   Clear
2:55 AM 59.0 °F 55.4 °F 88% 30.02 in 10.0 mi North 13.8 mph - N/A   Clear
3:15 AM 59.0 °F 55.4 °F 88% 30.02 in 10.0 mi North 12.7 mph - N/A   Clear
3:35 AM 59.0 °F 55.4 °F 88% 30.03 in 10.0 mi North 12.7 mph - N/A   Clear
3:55 AM 59.0 °F 55.4 °F 88% 30.03 in 10.0 mi NNW 15.0 mph - N/A   Clear
4:15 AM 59.0 °F 55.4 °F 88% 30.04 in 10.0 mi NNW 12.7 mph - N/A   Clear
4:35 AM 59.0 °F 53.6 °F 82% 30.04 in 10.0 mi North 12.7 mph - N/A   Clear
4:55 AM 57.2 °F 53.6 °F 88% 30.04 in 10.0 mi North 8.1 mph - N/A   Clear
5:15 AM 57.2 °F 53.6 °F 88% 30.03 in 10.0 mi North 9.2 mph - N/A   Clear
5:35 AM 57.2 °F 53.6 °F 88% 30.05 in 10.0 mi North 10.4 mph - N/A   Clear
5:55 AM 57.2 °F 53.6 °F 88% 30.06 in 10.0 mi North 11.5 mph - N/A   Clear
6:15 AM 57.2 °F 53.6 °F 88% 30.06 in 10.0 mi North 13.8 mph - N/A   Clear
6:35 AM 57.2 °F 53.6 °F 88% 30.07 in 10.0 mi North 10.4 mph - N/A   Clear
6:55 AM 59.0 °F 53.6 °F 82% 30.08 in 10.0 mi North 11.5 mph - N/A   Clear
7:15 AM 59.0 °F 53.6 °F 82% 30.08 in 10.0 mi North 10.4 mph - N/A   Clear
7:35 AM 60.8 °F 55.4 °F 82% 30.08 in 10.0 mi North 10.4 mph - N/A   Clear
7:55 AM 60.8 °F 55.4 °F 82% 30.09 in 10.0 mi North 10.4 mph - N/A   Clear
8:15 AM 62.6 °F 55.4 °F 77% 30.09 in 10.0 mi NNE 9.2 mph - N/A   Clear
8:35 AM 62.6 °F 55.4 °F 77% 30.10 in 10.0 mi North 11.5 mph - N/A   Clear
8:55 AM 64.4 °F 55.4 °F 73% 30.10 in 10.0 mi NNE 12.7 mph - N/A   Clear
9:15 AM 64.4 °F 55.4 °F 73% 30.09 in 10.0 mi NNE 11.5 mph - N/A   Clear
9:35 AM 66.2 °F 55.4 °F 68% 30.10 in 10.0 mi North 10.4 mph - N/A   Clear
9:55 AM 68.0 °F 55.4 °F 64% 30.10 in 10.0 mi NNE 9.2 mph - N/A   Clear
10:15 AM 68.0 °F 55.4 °F 64% 30.11 in 10.0 mi North 10.4 mph - N/A   Clear
10:35 AM 69.8 °F 55.4 °F 60% 30.11 in 10.0 mi NNE 6.9 mph - N/A   Clear
10:55 AM 69.8 °F 55.4 °F 60% 30.10 in 10.0 mi North 10.4 mph - N/A   Clear
11:15 AM 71.6 °F 53.6 °F 53% 30.10 in 10.0 mi NNE 12.7 mph - N/A   Clear
11:35 AM 71.6 °F 51.8 °F 50% 30.11 in 10.0 mi North 8.1 mph 15.0 mph N/A   Clear
11:55 AM 71.6 °F 51.8 °F 50% 30.11 in 10.0 mi NE 9.2 mph - N/A   Clear
12:15 PM 73.4 °F 51.8 °F 47% 30.11 in 10.0 mi NNE 8.1 mph - N/A   Clear
12:35 PM 73.4 °F 51.8 °F 47% 30.10 in 10.0 mi North 10.4 mph - N/A   Clear
12:55 PM 73.4 °F 51.8 °F 47% 30.09 in 10.0 mi NE 6.9 mph - N/A   Clear
1:15 PM 73.4 °F 51.8 °F 47% 30.09 in 10.0 mi North 9.2 mph - N/A   Clear
1:35 PM 73.4 °F 51.8 °F 47% 30.08 in 10.0 mi ENE 10.4 mph - N/A   Light Drizzle
1:55 PM 75.2 °F 53.6 °F 47% 30.07 in 10.0 mi NE 9.2 mph - N/A   Light Drizzle
2:15 PM 75.2 °F 53.6 °F 47% 30.07 in 10.0 mi Variable 6.9 mph 13.8 mph N/A   Clear
2:35 PM 75.2 °F 51.8 °F 44% 30.08 in 10.0 mi ENE 8.1 mph - N/A   Clear
2:55 PM 75.2 °F 51.8 °F 44% 30.08 in 10.0 mi Variable 4.6 mph - N/A   Clear
3:15 PM 75.2 °F 51.8 °F 44% 30.08 in 10.0 mi Variable 3.5 mph - N/A   Clear
3:35 PM 75.2 °F 51.8 °F 44% 30.08 in 10.0 mi North 6.9 mph - N/A   Clear
3:55 PM 75.2 °F 51.8 °F 44% 30.08 in 10.0 mi Calm Calm - N/A   Clear
4:15 PM 75.2 °F 51.8 °F 44% 30.08 in 10.0 mi Variable 4.6 mph - N/A   Clear
4:35 PM 75.2 °F 51.8 °F 44% 30.07 in 10.0 mi Variable 5.8 mph - N/A   Clear
4:55 PM 77.0 °F 51.8 °F 41% 30.07 in 10.0 mi NNE 6.9 mph - N/A   Clear
5:15 PM 77.0 °F 51.8 °F 41% 30.07 in 10.0 mi Calm Calm - N/A   Clear
5:35 PM 77.0 °F 53.6 °F 44% 30.07 in 10.0 mi Variable 4.6 mph - N/A   Clear
5:55 PM 77.0 °F 51.8 °F 41% 30.05 in 10.0 mi Calm Calm - N/A   Clear
6:15 PM 77.0 °F 51.8 °F 41% 30.05 in 10.0 mi ENE 4.6 mph - N/A   Clear
6:35 PM 77.0 °F 51.8 °F 41% 30.04 in 10.0 mi ESE 3.5 mph - N/A   Clear
6:55 PM 77.0 °F 51.8 °F 41% 30.04 in 10.0 mi NE 4.6 mph - N/A   Clear
7:15 PM 77.0 °F 51.8 °F 41% 30.04 in 10.0 mi ENE 4.6 mph 12.7 mph N/A   Clear
7:35 PM 77.0 °F 51.8 °F 41% 30.02 in 10.0 mi East 10.4 mph - N/A   Light Drizzle
7:55 PM 77.0 °F 51.8 °F 41% 30.02 in 10.0 mi East 5.8 mph - N/A   Light Drizzle
8:15 PM 75.2 °F 53.6 °F 47% 30.01 in 10.0 mi East 6.9 mph - N/A   Light Drizzle
8:35 PM 73.4 °F 55.4 °F 53% 30.01 in 10.0 mi East 4.6 mph - N/A   Clear
8:55 PM 71.6 °F 55.4 °F 57% 30.00 in 10.0 mi East 6.9 mph - N/A   Clear
9:15 PM 71.6 °F 55.4 °F 57% 29.99 in 10.0 mi ENE 8.1 mph - N/A   Clear
9:35 PM 71.6 °F 55.4 °F 57% 30.00 in 10.0 mi ENE 5.8 mph - N/A   Clear
9:55 PM 71.6 °F 55.4 °F 57% 29.99 in 10.0 mi East 10.4 mph - N/A   Partly Cloudy
10:15 PM 69.8 °F 57.2 °F 64% 30.01 in 10.0 mi East 6.9 mph - N/A   Partly Cloudy
10:35 PM 69.8 °F 57.2 °F 64% 30.01 in 10.0 mi East 4.6 mph - N/A   Partly Cloudy
10:55 PM 68.0 °F 57.2 °F 68% 30.02 in 10.0 mi SE 3.5 mph - N/A   Partly Cloudy
11:15 PM 69.8 °F 57.2 °F 64% 30.04 in 10.0 mi Calm Calm - N/A   Clear
11:35 PM 69.8 °F 57.2 °F 64% 30.05 in 10.0 mi Calm Calm - N/A   Clear
11:55 PM 69.8 °F 57.2 °F 64% 30.06 in 10.0 mi ENE 3.5 mph - N/A   Clear